Theta_e
287 288 287 287 286 287 288 287 287 286 286 285 286 286 286 287 286 286 284 285 285 284 284 284 283 283 283 283 283 283 283 282 282 282 281 281 281 281 281 280 280 281 281 281 281 281 282 282 282 282 281 281 281 281 281 280 280 281 281 280 280 280 280 279 279 280 280 279 280 281 279 279 279 280 280 281 281 282 286 283 283 283 283 283 283
288 288 287 287 287 288 288 287 287 286 286 286 286 287 287 287 286 284 285 286 284 285 284 284 284 283 283 283 283 283 283 283 282 282 282 281 281 282 282 281 280 281 280 280 281 281 281 281 282 282 282 281 281 281 281 280 280 280 280 280 280 280 280 280 279 278 279 279 279 279 279 279 280 279 280 280 280 281 281 283 283 282 282 282 282
288 287 287 287 287 288 287 287 287 286 285 287 287 287 287 287 286 285 286 286 285 285 285 284 284 283 283 283 283 283 283 283 282 282 282 282 282 282 282 281 281 281 281 281 281 281 280 281 281 282 282 281 281 281 281 281 281 281 281 280 280 280 280 280 279 279 279 280 281 281 280 279 280 282 280 281 282 281 280 281 282 283 283 283 282
287 286 286 287 287 286 287 287 286 286 286 287 287 287 287 287 286 285 286 286 285 286 284 284 284 283 283 283 283 283 283 283 282 282 282 282 282 282 282 282 282 282 282 282 281 281 281 280 281 281 281 281 281 281 281 281 281 281 281 281 280 280 280 280 280 280 280 279 280 281 281 279 280 281 281 281 281 280 280 281 281 281 282 283 282
286 286 285 286 286 286 286 286 286 286 287 287 287 287 287 287 286 286 286 286 286 285 285 283 283 283 284 284 284 283 283 283 283 282 282 282 282 282 282 282 282 282 282 282 283 282 281 281 281 281 281 280 281 281 281 280 281 281 280 281 280 281 281 280 280 280 279 279 280 281 281 280 281 280 281 281 281 280 280 280 282 282 281 281 282
286 286 285 285 286 286 286 286 286 286 287 287 287 287 287 286 286 286 285 286 286 285 285 285 285 284 284 284 284 284 284 284 283 283 283 283 282 282 282 282 282 282 282 282 282 282 282 282 282 281 281 280 281 281 281 281 281 280 280 281 281 281 280 280 280 279 279 279 279 280 281 281 280 280 280 281 281 280 280 281 281 281 281 281 281
286 285 285 285 285 286 286 287 287 287 287 287 287 286 286 286 285 286 286 285 285 285 285 285 285 285 285 284 284 284 284 284 284 283 283 283 282 282 282 282 282 282 282 282 282 282 282 282 282 282 282 281 281 281 281 281 281 281 281 281 281 280 280 280 279 279 279 278 279 279 280 281 281 281 282 281 281 281 281 281 281 281 281 281 282
285 285 285 285 285 286 287 287 287 287 287 286 286 286 286 286 286 286 285 285 285 285 285 286 286 284 285 284 285 285 284 284 283 283 283 283 283 282 282 282 282 282 282 282 282 282 282 282 282 283 282 282 282 282 282 282 281 281 282 281 281 280 280 280 279 279 278 278 279 279 279 280 281 281 281 280 279 279 280 280 280 281 281 281 280
285 285 285 285 286 287 287 286 286 286 286 285 285 286 286 286 285 285 284 285 285 285 285 285 285 285 284 284 284 284 284 285 285 284 284 283 283 283 283 283 282 282 282 282 282 282 282 282 283 283 284 285 286 285 285 285 283 281 281 281 281 281 280 280 280 279 279 279 278 279 279 279 280 280 279 279 279 280 281 280 280 281 281 281 281
285 285 285 286 287 286 286 285 286 285 285 285 286 286 285 285 285 285 285 285 284 284 284 284 284 284 284 284 284 284 285 285 286 288 288 286 284 284 283 283 283 282 282 282 282 282 282 282 283 285 285 285 286 286 287 287 287 285 283 282 282 281 281 280 280 280 280 279 279 279 278 278 279 280 280 280 281 281 280 279 279 280 279 280 281
285 285 286 287 286 286 285 285 285 285 285 285 285 285 285 285 284 284 284 284 284 284 283 284 284 284 284 284 284 284 285 286 288 289 290 291 288 285 284 284 283 283 282 282 282 282 282 282 282 284 285 285 285 286 287 287 288 288 288 287 285 283 281 280 281 281 281 280 280 280 279 279 280 281 280 281 281 281 280 280 280 280 279 278 278
285 286 286 286 286 285 285 285 285 285 285 285 285 285 285 284 284 284 284 284 284 283 283 284 284 284 284 284 284 285 285 287 289 290 291 291 290 288 286 285 285 284 283 283 283 283 283 283 283 283 283 283 283 283 285 287 287 288 288 288 288 288 287 284 282 281 281 281 280 280 280 279 280 281 281 281 281 281 281 281 280 280 279 279 279
285 286 286 286 286 286 285 285 285 285 285 285 285 285 284 284 284 284 284 284 283 283 284 284 284 284 283 284 284 285 285 287 289 290 290 291 291 290 287 286 285 285 285 284 284 283 283 283 283 283 283 285 284 283 282 283 286 287 288 288 288 288 289 289 288 285 284 282 281 280 280 281 281 281 282 282 283 281 280 280 280 280 280 280 280
285 286 286 286 286 286 285 285 285 285 285 285 284 284 284 284 285 285 284 284 283 284 284 283 284 284 284 284 284 285 285 287 289 290 290 290 291 290 287 286 286 285 285 285 285 284 284 283 283 283 283 283 283 283 282 282 282 282 283 284 285 286 288 289 288 288 287 284 283 281 282 282 282 283 284 285 283 282 281 280 280 280 280 280 281
285 285 285 286 285 285 285 285 285 286 285 285 284 284 284 284 284 284 284 284 284 284 284 284 284 284 284 284 284 284 285 288 289 289 290 290 291 290 287 286 286 285 285 285 285 285 284 284 284 283 283 283 283 283 282 282 281 282 281 281 282 283 284 284 285 286 287 287 286 284 284 284 284 284 285 285 285 284 284 283 283 282 282 282 281
285 285 285 286 286 286 285 285 286 285 285 284 284 284 284 284 284 284 284 284 284 284 284 284 284 284 284 284 283 284 285 288 289 289 290 290 291 288 286 285 285 285 285 285 285 285 284 284 284 284 284 284 285 287 286 283 281 281 281 281 281 282 282 285 287 287 287 287 287 287 286 287 288 286 286 285 285 285 285 284 284 282 281 280 280
285 285 286 286 286 286 286 285 286 286 285 285 284 284 284 284 284 284 284 284 284 284 284 284 284 284 284 283 283 284 285 287 288 289 289 290 290 286 285 284 284 284 284 284 284 284 284 284 284 284 284 284 286 287 288 287 283 282 281 281 282 282 282 283 286 288 288 289 289 289 290 290 290 291 291 290 288 287 285 283 282 282 281 279 280
286 286 287 287 287 286 286 286 285 286 285 285 285 285 285 285 285 284 284 284 284 285 284 284 284 284 284 284 284 284 284 286 287 288 289 290 289 285 284 283 283 283 283 283 283 283 284 285 284 284 283 284 286 288 288 287 284 283 282 281 281 281 282 283 284 285 287 288 288 289 289 289 290 290 291 291 291 290 286 283 284 283 281 281 280
287 287 288 288 287 286 286 286 285 285 285 286 286 285 285 285 285 284 284 284 285 285 284 284 284 284 284 284 283 284 284 285 287 288 289 289 288 285 284 283 282 283 282 282 283 283 283 283 284 285 284 285 287 288 288 287 284 283 283 282 282 282 283 283 283 282 282 282 283 284 285 286 286 286 286 289 289 288 288 287 286 284 283 282 282
289 288 288 287 287 286 286 285 285 285 285 286 286 286 285 285 284 284 284 284 284 284 284 283 283 284 284 284 284 284 284 284 285 287 288 288 289 286 283 282 282 282 282 282 282 282 282 282 283 286 287 288 288 288 289 289 286 284 283 282 282 282 283 283 283 283 282 282 283 282 282 283 283 284 284 285 286 287 287 287 287 286 284 283 283
288 288 287 287 286 286 286 285 286 286 286 286 286 285 285 284 284 284 284 283 283 283 283 283 283 283 284 284 284 284 284 284 284 286 287 288 289 288 284 283 283 282 282 282 282 282 282 281 281 284 287 288 288 288 289 289 289 286 284 283 283 285 285 283 283 283 282 282 282 282 282 282 282 283 283 284 285 285 286 286 286 286 285 284 283
288 287 287 287 287 286 286 286 285 286 286 285 284 285 285 284 284 284 284 283 283 283 283 283 283 283 284 284 284 284 284 283 284 285 287 288 288 289 285 284 284 282 282 282 282 281 282 282 281 283 286 287 287 288 289 289 289 287 286 288 288 288 286 285 284 283 282 282 281 281 281 281 281 282 283 283 284 284 285 285 285 286 286 286 285
288 287 287 287 287 287 286 286 285 285 285 285 284 284 285 284 284 283 283 282 282 283 283 283 283 283 283 284 284 284 284 284 284 283 285 287 288 288 288 286 287 284 282 282 282 282 282 281 282 283 285 286 287 288 288 288 288 287 288 289 289 289 287 285 284 283 282 282 282 282 282 282 282 282 283 283 284 285 285 285 285 285 285 286 286
287 287 286 286 287 287 286 286 286 285 285 284 284 284 284 284 284 283 283 282 282 282 283 283 282 282 283 284 285 285 284 284 284 284 284 286 287 288 288 289 288 285 283 283 283 283 282 282 282 284 285 286 286 287 288 287 286 287 288 288 288 287 285 284 283 284 284 283 283 283 283 283 283 283 284 285 285 286 286 286 285 285 285 285 286
287 286 286 287 287 287 287 286 286 285 285 284 283 283 283 283 283 283 282 282 282 282 283 283 282 283 283 284 285 285 285 284 283 283 284 284 286 287 288 288 289 288 285 284 283 283 284 285 285 285 286 286 286 287 287 286 287 287 287 287 285 284 283 283 283 283 283 283 283 283 284 284 285 285 286 286 286 286 285 284 283 282 278 277 274
287 287 286 287 287 287 287 287 286 285 285 284 284 284 284 284 283 283 282 283 282 282 282 283 283 283 283 284 284 285 284 283 284 284 282 283 283 286 287 287 286 287 286 285 285 285 286 286 286 286 285 285 284 283 283 283 284 285 285 284 283 283 283 282 283 283 283 283 283 283 284 285 285 285 283 282 283 283 283 282 280 279 276 276 275
286 286 286 287 287 287 286 287 287 286 285 284 284 284 284 284 284 283 283 283 283 283 283 283 283 283 283 284 284 284 283 283 284 284 283 282 282 282 283 284 284 284 284 283 282 282 283 283 283 284 283 283 282 282 282 282 282 281 281 282 281 281 282 282 283 283 283 283 283 284 284 284 282 280 281 282 281 281 281 280 279 279 275 275 275
286 286 287 287 287 287 287 285 286 286 286 285 284 283 283 283 283 284 284 284 284 284 284 284 284 284 284 285 284 283 283 283 284 285 285 282 281 281 281 280 281 281 280 280 280 280 280 281 281 279 278 279 279 278 279 279 280 281 280 280 281 282 283 284 284 284 284 284 283 284 283 283 282 281 279 278 278 277 275 276 277 277 274 273 272
286 286 286 286 286 287 287 287 287 286 286 286 285 286 285 284 284 284 286 287 287 286 286 286 286 286 285 285 284 284 284 284 286 286 286 285 283 281 280 280 280 279 281 282 280 280 279 279 278 279 278 278 278 278 278 278 278 280 280 281 282 282 283 283 282 282 283 282 282 282 281 281 279 276 276 275 276 274 272 272 273 273 272 272 272
286 286 286 286 286 286 286 286 286 286 286 285 285 285 285 286 287 286 286 286 286 286 287 287 287 286 285 286 286 286 287 288 288 287 286 285 285 285 284 283 283 282 282 285 284 282 281 280 281 281 280 280 280 280 280 281 281 281 281 282 282 282 282 281 282 282 282 281 281 279 278 277 276 275 274 274 272 269 270 272 270 270 269 270 270
287 287 286 286 286 286 286 286 287 286 286 285 285 285 286 286 286 286 286 286 286 286 286 287 287 287 287 287 287 287 287 288 288 287 286 286 286 286 285 285 286 286 286 285 283 282 281 281 281 282 281 281 281 281 281 281 281 281 281 281 281 280 280 280 281 280 279 278 277 276 275 274 273 273 272 272 270 268 267 267 267 268 268 268 268
286 287 287 287 287 286 286 286 286 286 286 286 285 285 285 285 286 286 285 285 285 286 286 286 286 287 287 287 287 287 287 287 287 287 286 286 286 286 286 286 287 287 287 287 283 282 283 282 281 282 282 281 282 282 282 282 282 281 281 281 280 280 280 279 278 276 276 275 274 273 272 272 271 270 269 268 267 266 265 265 266 265 265 265 265
286 287 287 287 287 286 286 286 286 286 286 285 285 285 284 284 284 285 286 285 285 286 286 286 286 286 286 286 287 286 286 287 287 286 286 286 286 285 286 286 287 287 287 285 283 282 282 282 282 282 282 282 282 282 282 282 281 281 281 280 280 277 274 273 273 272 272 271 271 269 268 268 268 267 267 266 266 265 265 264 264 264 264 263 263
287 287 287 287 287 287 287 286 286 286 286 286 286 285 285 285 285 285 285 285 284 284 284 285 285 285 285 286 286 286 286 286 286 286 286 285 285 286 285 285 286 287 286 283 283 282 282 282 282 282 282 282 282 282 281 281 281 280 279 277 273 270 270 271 270 270 269 269 268 267 266 265 266 265 265 264 265 265 264 264 263 263 263 263 262
286 286 286 286 286 286 287 287 286 286 286 286 285 285 285 285 285 285 285 285 285 286 287 286 285 285 285 285 285 285 285 285 285 285 285 285 285 286 286 284 283 283 284 283 282 282 282 281 281 281 281 281 281 280 279 277 275 275 274 272 270 269 268 269 268 268 267 266 265 263 263 263 263 264 263 263 263 262 262 262 261 261 261 260 260
286 286 287 287 286 286 286 286 286 286 286 286 286 286 286 285 285 285 286 285 285 285 286 286 286 284 285 285 285 285 285 285 285 285 285 285 285 286 282 282 281 281 282 282 282 282 281 281 281 280 277 275 273 273 273 272 271 270 270 270 269 268 267 266 266 265 265 263 262 262 262 260 260 260 259 260 260 260 260 260 260 260 260 260 260
287 287 287 287 287 287 286 286 286 286 285 286 286 286 286 285 285 285 285 285 285 285 285 286 286 285 284 284 284 285 285 285 285 285 285 285 285 285 284 283 282 282 281 281 281 280 280 277 273 272 271 271 270 269 268 268 268 267 268 267 267 266 265 264 264 264 263 262 260 259 258 258 259 259 259 258 257 257 258 259 259 260 259 260 259
287 287 287 287 287 287 286 286 286 286 286 286 286 286 285 285 285 285 285 285 285 285 285 286 285 286 286 286 285 284 284 284 284 284 284 284 284 283 283 283 282 282 281 281 279 278 275 269 269 269 268 268 267 267 266 266 266 265 265 265 265 264 265 263 262 261 260 259 257 257 258 257 256 257 258 257 256 256 257 257 256 257 258 258 257
287 286 286 286 286 286 286 286 286 286 286 286 286 285 285 285 285 285 285 285 285 285 285 286 286 286 286 287 285 284 283 282 282 281 283 283 284 284 283 282 281 280 279 276 271 271 269 267 266 265 265 265 265 265 265 264 264 264 264 263 262 262 261 260 259 258 258 257 256 256 256 255 254 255 255 255 255 254 254 255 255 255 255 255 254
287 287 287 287 287 286 286 286 286 286 286 286 286 286 285 285 285 285 285 285 285 285 285 285 286 286 287 287 286 284 282 282 282 282 283 282 281 280 280 279 278 277 272 269 268 267 266 265 264 263 263 263 263 263 263 263 263 263 262 261 260 259 259 258 258 257 257 256 255 254 254 254 253 254 253 253 252 252 252 252 253 253 253 253 253
287 287 285 286 286 286 286 286 286 286 286 286 286 286 286 286 286 286 286 286 286 286 286 286 286 287 288 287 286 285 284 284 284 283 282 281 280 277 276 275 274 271 269 267 266 265 264 263 262 262 262 261 261 261 262 262 261 260 260 259 258 257 256 256 256 255 255 254 254 253 253 253 252 253 252 252 255 252 251 251 251 250 252 252 252
287 287 287 287 287 286 286 286 286 286 285 286 286 286 286 286 286 286 286 286 286 286 286 286 287 287 287 285 285 284 284 284 284 283 282 281 278 275 271 268 268 267 266 265 265 263 262 262 261 261 260 260 260 260 260 260 260 259 258 257 256 255 255 254 254 254 254 253 253 253 252 253 253 253 252 253 248 248 249 248 248 248 248 249 249
287 287 287 287 286 286 286 286 286 286 286 286 286 284 286 286 286 286 286 286 286 286 286 286 287 287 286 284 283 282 283 284 279 281 280 276 271 268 265 264 264 264 264 263 263 263 261 260 259 259 258 258 258 258 258 258 258 257 257 256 255 254 253 253 253 252 252 252 252 252 251 251 251 249 249 249 247 248 248 248 248 247 247 246 247
287 287 287 287 287 287 287 286 286 286 286 286 285 286 286 286 286 286 286 286 286 286 286 286 286 286 285 281 278 279 282 283 282 278 273 268 266 264 262 260 260 260 260 260 260 260 260 258 256 255 255 255 255 255 255 256 257 256 255 254 253 253 252 252 252 251 251 250 250 250 249 249 249 248 249 248 247 247 247 247 247 246 245 244 244
286 287 287 287 287 287 287 287 287 287 287 286 286 286 286 286 286 286 286 286 286 286 286 286 286 285 283 280 278 278 279 278 272 268 266 264 262 260 259 258 258 258 258 258 258 257 257 255 255 254 253 253 253 254 254 254 255 255 255 254 253 252 251 251 251 250 250 250 249 249 247 247 246 246 247 247 247 248 248 247 246 248 246 245 243
281 283 285 286 287 287 287 287 287 287 287 287 287 287 286 286 286 286 286 286 285 285 285 285 284 284 283 282 277 274 273 270 266 264 263 262 260 257 257 256 256 256 256 256 256 256 256 255 254 253 253 253 253 253 253 253 253 253 253 253 252 252 251 250 249 248 248 248 248 247 247 247 246 247 248 247 247 248 247 246 244 243 242 243 242
279 281 283 285 286 286 286 286 286 286 286 286 286 286 286 286 286 286 285 285 285 284 284 284 284 284 282 279 275 272 269 266 265 263 262 259 257 256 255 255 255 254 254 254 254 254 254 254 253 253 253 252 252 252 252 252 252 252 252 251 251 251 250 250 249 249 248 247 247 247 247 247 246 246 247 246 246 246 246 244 243 242 242 243 242
276 278 280 283 285 285 286 286 286 284 286 286 286 286 286 286 286 285 285 285 284 284 283 283 283 282 278 275 271 269 266 265 263 260 258 256 255 254 254 254 253 253 252 252 253 253 253 253 253 252 252 252 252 251 251 251 251 251 251 251 251 251 251 250 249 249 248 247 247 246 246 246 244 244 244 243 242 243 243 243 244 244 243 243 244
275 277 279 281 282 284 284 285 285 285 286 286 286 286 285 285 285 285 285 285 284 284 284 283 282 277 274 271 268 265 263 260 257 256 255 254 254 254 253 253 252 252 252 251 251 251 252 252 252 252 252 252 252 251 251 251 250 251 251 251 254 255 253 251 249 248 250 248 246 246 245 244 243 243 244 243 243 243 243 243 243 244 244 244 243
273 275 277 279 280 281 283 284 285 285 285 285 285 285 285 285 285 284 284 284 284 283 283 280 277 275 271 267 262 259 257 256 256 255 254 253 253 252 252 251 251 251 251 250 250 251 251 251 251 251 251 251 251 251 250 251 251 250 250 253 256 254 253 252 251 251 248 244 245 244 244 243 242 241 241 241 242 242 243 243 243 244 244 242 242
271 273 275 276 277 279 280 282 283 284 284 285 285 285 284 285 285 285 284 284 284 282 279 276 270 263 261 261 259 258 257 256 255 254 253 252 252 251 251 251 250 250 250 250 250 250 250 250 250 250 250 250 250 250 251 251 251 252 255 256 254 253 253 252 249 251 250 247 243 244 244 243 242 241 240 239 239 239 243 244 244 243 242 243 243
Wind_Speed
5 7 5 5 4 6 7 5 6 4 4 4 6 7 7 6 7 7 4 6 5 6 6 7 6 6 6 5 6 6 6 6 5 5 5 6 6 7 6 5 7 8 6 7 5 6 7 8 9 8 5 5 7 6 6 6 5 6 5 6 7 6 7 7 8 9 6 4 4 5 2 3 3 6 6 6 5 6 8 8 8 7 7 8 9
6 6 5 5 5 6 7 5 6 4 5 5 6 7 7 7 6 4 6 7 5 7 7 6 5 6 5 6 6 7 6 6 5 4 6 6 7 5 7 7 8 9 6 8 8 7 7 8 9 9 6 7 6 7 7 6 6 6 7 7 7 7 7 7 8 6 9 3 4 3 3 4 4 3 8 8 8 5 8 8 6 7 8 8 8
5 4 5 5 7 6 5 6 5 5 5 6 7 8 7 7 5 6 7 7 5 6 7 6 6 5 6 6 6 6 7 6 5 5 6 7 8 7 7 8 8 9 9 10 10 7 6 8 10 9 5 6 8 8 6 7 6 8 8 7 8 7 6 8 6 7 8 8 5 5 5 4 7 7 6 7 6 5 6 7 8 7 8 9 8
6 5 5 6 6 5 6 7 6 6 6 7 7 7 7 6 5 6 7 6 6 6 5 6 5 6 6 6 6 7 6 6 6 6 8 8 8 9 8 8 9 9 9 9 9 8 9 8 10 9 7 8 9 8 7 7 7 7 7 7 7 8 7 6 8 8 6 7 5 6 3 5 6 7 4 5 6 4 6 7 5 7 7 7 8
5 6 5 6 6 6 7 6 6 7 8 7 8 7 7 6 5 6 6 7 7 5 5 4 5 5 7 7 7 7 7 6 6 7 7 7 8 8 8 8 9 9 10 10 9 9 9 10 10 8 7 9 9 8 8 8 8 7 8 8 7 8 6 6 8 7 7 8 7 6 4 4 5 4 5 6 5 4 4 7 8 8 7 6 6
5 5 5 6 7 6 7 6 7 8 8 7 8 8 7 5 6 5 5 7 6 5 6 5 6 7 7 7 7 7 6 6 7 7 7 7 7 8 8 8 9 9 9 9 9 9 9 10 10 8 8 9 10 9 8 9 7 8 8 8 8 6 6 6 6 6 7 9 8 9 7 7 6 6 5 6 6 6 6 7 6 5 6 7 9
5 5 6 6 6 7 7 8 8 7 7 8 7 6 6 6 5 7 5 6 7 7 6 6 6 6 7 6 7 7 7 6 7 7 7 7 8 8 8 9 9 8 8 9 9 9 10 10 10 9 10 10 10 10 9 8 8 9 9 10 8 6 7 7 7 7 8 8 8 8 9 8 6 9 7 5 6 7 8 7 8 6 7 9 9
6 6 6 6 7 9 8 8 7 8 7 6 6 7 7 7 7 6 5 6 7 8 8 7 7 5 7 6 7 6 6 6 6 7 7 7 7 8 8 8 9 8 8 8 9 9 10 10 10 10 10 10 10 10 9 9 7 9 9 8 7 7 8 7 6 7 8 8 9 9 8 10 9 7 4 1 3 5 7 8 10 10 9 7 8
7 6 6 7 9 9 7 6 6 6 6 6 7 8 8 7 7 6 6 7 7 7 7 6 7 7 6 7 7 6 7 8 6 6 7 8 7 8 9 9 9 9 8 8 8 9 9 9 10 10 11 13 15 14 12 11 8 9 9 8 8 8 8 7 8 8 8 8 9 8 9 9 9 9 7 8 11 13 5 6 9 9 9 8 7
7 7 8 9 9 7 7 6 7 6 6 7 8 8 7 7 7 7 7 7 7 7 6 7 7 8 8 7 6 6 7 6 8 13 10 7 7 7 7 8 8 8 8 8 8 8 10 9 9 14 16 17 17 17 18 18 17 13 10 8 9 9 9 9 9 9 9 9 10 10 10 11 11 11 11 11 9 6 6 6 8 9 6 8 9
7 8 10 9 8 7 6 8 6 7 8 7 7 8 9 7 7 8 8 7 8 7 6 8 8 8 8 8 7 7 7 7 11 12 14 15 10 8 8 9 7 8 8 9 10 9 8 9 8 11 13 14 14 18 18 19 19 20 20 18 13 11 9 10 11 10 10 10 10 9 10 11 11 11 10 10 8 8 8 7 9 7 8 10 12
8 9 10 9 8 8 8 7 7 9 7 9 9 9 7 7 8 8 8 8 8 6 8 9 8 8 7 7 8 9 8 9 12 12 13 14 13 10 8 8 8 8 8 9 9 8 9 8 8 7 8 10 10 10 14 18 19 20 21 20 20 20 18 14 11 10 10 10 11 11 9 10 11 8 9 8 9 8 8 8 8 9 10 10 10
8 9 9 9 9 9 8 8 9 9 9 9 8 7 8 8 9 9 11 9 5 8 9 8 9 8 8 9 10 9 8 8 12 13 13 14 15 13 8 9 9 9 9 9 9 9 8 8 8 8 8 13 12 10 9 10 14 19 20 20 21 22 22 23 21 15 9 11 11 11 10 9 10 10 10 9 6 8 7 8 9 10 11 11 11
8 10 9 9 9 9 8 8 10 10 9 8 8 8 8 11 10 8 8 6 8 9 8 10 9 9 9 9 10 9 9 10 12 13 13 14 15 13 8 9 9 10 10 10 9 9 9 8 9 9 7 8 8 10 9 9 8 8 9 10 11 15 20 22 22 23 19 14 12 13 10 10 12 11 11 9 9 11 9 10 8 10 11 13 12
8 8 9 10 9 9 9 9 11 11 9 8 8 9 10 10 9 9 8 9 9 10 10 10 10 9 9 9 9 10 10 11 11 13 14 14 15 13 8 8 9 9 10 9 10 10 9 9 9 10 9 8 8 9 9 8 8 8 9 9 10 11 11 11 13 13 14 13 14 15 13 12 13 13 11 9 12 12 11 11 10 10 10 9 9
10 7 10 12 11 10 9 10 11 11 10 9 9 11 10 11 11 9 8 9 8 7 8 8 9 9 8 8 8 11 11 11 12 13 14 14 15 9 8 8 9 9 10 10 9 9 8 9 9 10 10 10 11 15 13 8 8 9 10 10 10 9 10 12 15 16 15 13 13 14 13 13 15 13 12 11 10 10 9 8 6 7 9 10 12
10 10 11 12 11 10 10 10 11 11 10 10 11 11 11 11 10 7 8 9 9 9 10 9 9 9 9 8 10 11 11 12 13 14 14 15 10 7 7 8 9 10 11 9 9 9 8 8 9 9 9 10 11 12 15 13 9 10 10 10 10 9 11 9 15 20 20 20 20 19 18 17 18 19 18 21 16 11 8 9 11 8 10 12 12
11 11 12 13 11 10 10 10 11 11 10 12 13 12 10 8 9 7 9 10 10 11 8 8 8 9 9 10 10 10 11 11 13 14 15 14 12 8 7 7 9 10 10 9 8 8 9 13 12 10 10 11 10 14 15 12 10 10 9 10 11 11 11 8 7 8 16 19 20 21 21 21 21 22 21 21 22 17 11 14 11 6 12 11 14
12 13 13 12 10 10 10 10 11 12 12 13 11 12 12 11 9 7 9 9 10 8 7 8 8 8 9 10 10 12 11 11 14 13 15 14 12 8 8 7 9 10 9 9 8 8 8 9 14 13 11 11 14 15 16 13 9 9 9 9 11 13 11 5 7 7 5 6 9 10 12 15 15 13 14 21 21 18 14 15 10 10 13 12 12
14 11 11 10 9 9 9 10 11 11 13 12 11 12 10 8 9 9 8 8 9 8 8 8 10 10 8 9 10 11 11 11 10 14 15 16 16 10 7 7 10 11 8 8 9 8 8 7 9 14 17 17 17 17 17 16 11 9 8 9 11 15 6 5 7 7 7 8 8 8 10 8 9 10 10 11 13 14 15 14 12 11 13 13 12
11 11 10 9 10 11 10 10 13 12 12 12 10 10 9 10 9 8 9 8 8 8 9 9 9 11 9 9 9 11 10 11 11 13 16 16 17 15 8 10 10 9 8 8 8 9 8 7 6 10 15 16 17 17 17 18 16 11 10 11 11 11 7 7 8 9 8 7 8 7 7 7 8 8 9 9 10 10 10 12 12 11 13 13 13
11 9 10 11 11 11 11 11 11 11 10 10 10 11 11 10 9 9 8 7 9 11 9 9 9 10 10 9 10 12 11 14 12 12 15 17 17 18 11 11 10 8 9 10 9 9 10 7 6 8 14 16 16 17 18 17 18 11 11 16 18 17 12 8 7 6 7 7 7 7 8 8 8 8 9 9 9 9 9 9 10 11 12 12 13
11 11 10 11 12 12 11 11 11 9 10 10 11 12 10 9 10 8 9 8 9 11 11 10 9 10 10 10 10 11 11 10 15 13 14 16 18 19 18 12 13 10 10 11 11 10 7 7 7 10 13 15 16 17 17 18 15 11 15 16 16 16 13 7 7 7 7 7 7 9 9 9 9 9 8 9 8 8 8 9 9 10 11 12 13
10 11 11 11 12 12 11 10 10 10 10 9 10 11 11 10 9 9 9 9 9 10 10 9 9 10 12 12 10 10 10 9 11 16 13 16 18 19 19 19 16 11 10 11 10 8 8 7 7 11 13 14 16 16 16 15 11 13 15 15 15 13 8 7 7 7 8 8 9 9 9 8 8 8 8 7 7 7 8 8 9 10 11 10 12
10 10 11 11 12 12 11 10 10 9 9 9 10 10 11 9 10 9 8 9 10 10 11 8 10 11 11 12 12 10 9 8 9 11 15 15 17 18 18 18 18 18 12 11 9 9 10 13 13 12 12 13 15 16 14 15 17 16 16 15 13 7 7 7 8 7 8 9 9 8 8 8 8 8 7 6 6 4 4 5 5 4 2 1 1
12 12 11 11 13 13 13 13 10 11 11 9 11 10 10 10 10 9 8 10 10 11 11 9 10 11 12 12 12 12 8 7 8 8 8 12 12 16 18 17 17 18 16 11 12 14 15 14 15 14 13 12 9 8 8 9 12 14 15 13 8 8 7 7 7 8 9 9 9 9 8 6 6 4 1 1 3 5 4 5 5 5 4 4 4
13 12 12 13 13 12 13 13 11 10 9 9 9 10 10 10 10 10 10 10 11 11 11 11 10 10 12 13 12 10 8 8 8 8 8 8 9 9 11 12 14 13 11 9 9 8 10 10 9 10 8 10 11 10 9 9 8 8 7 7 7 7 7 8 9 9 9 8 8 7 6 5 1 0 4 4 4 4 3 4 5 5 4 4 5
13 13 13 12 12 11 12 15 14 11 11 9 10 10 10 10 11 13 13 13 12 13 12 12 12 12 13 13 10 9 9 9 9 11 10 9 8 8 9 8 9 8 9 8 7 7 7 6 8 6 6 6 7 6 7 6 7 7 7 6 7 7 8 10 10 8 8 7 6 5 4 3 5 4 1 2 3 2 0 2 4 4 4 4 3
12 13 12 11 13 12 12 12 11 12 12 10 11 11 11 11 13 13 14 11 12 14 12 13 12 12 11 11 10 10 10 10 13 8 8 10 11 9 9 10 8 8 9 8 6 5 4 6 6 7 6 7 7 7 6 6 6 7 7 7 7 7 7 6 7 7 6 5 5 5 5 3 2 2 2 2 3 2 1 1 2 3 1 3 6
12 13 10 11 12 11 11 11 11 11 11 11 11 12 14 17 15 13 14 14 21 22 16 14 12 8 9 11 11 13 14 12 3 11 14 14 14 14 11 10 11 9 8 13 9 7 7 7 8 8 8 7 8 7 7 6 6 6 7 7 7 6 6 6 6 6 5 5 5 4 3 2 3 2 3 3 2 1 1 1 1 1 3 4 5
13 13 10 11 12 11 11 12 11 10 11 10 10 12 12 11 19 24 24 20 17 19 22 24 22 17 12 12 12 17 20 18 14 10 11 14 13 13 14 14 15 15 14 9 9 10 10 11 11 8 8 8 8 8 7 7 7 6 6 6 6 7 7 6 6 5 5 5 4 3 3 3 3 2 2 1 1 1 2 3 2 1 1 1 1
13 14 12 11 12 11 11 12 12 12 11 10 10 11 11 13 13 16 23 24 23 22 22 21 22 23 23 20 16 11 14 18 19 16 14 13 14 15 16 17 16 15 15 15 10 10 9 10 11 10 9 9 9 8 7 7 7 6 6 6 6 6 7 7 4 4 4 3 3 3 2 1 1 1 2 2 3 3 3 2 3 3 3 3 3
13 15 14 13 12 13 12 12 12 11 12 12 11 10 11 11 13 16 9 17 23 22 22 24 24 22 22 24 25 22 20 16 16 16 17 17 16 16 16 17 17 17 16 12 11 12 10 10 10 9 9 10 9 7 7 7 7 6 6 7 7 4 3 3 3 3 3 3 3 2 3 3 3 4 4 4 4 4 4 4 3 3 4 4 3
14 13 13 14 13 13 12 11 12 12 11 11 11 10 11 11 12 12 13 10 8 12 16 20 21 22 24 25 25 24 23 23 22 19 16 16 16 17 16 13 16 19 17 12 11 11 11 10 10 9 9 9 8 7 7 7 6 6 5 3 3 4 3 3 3 3 3 3 3 3 3 3 4 4 4 4 3 4 4 3 3 4 3 3 4
12 15 22 18 13 14 14 12 11 11 11 11 11 11 12 11 11 12 12 13 13 13 10 10 15 21 20 18 22 23 23 24 22 19 20 18 17 16 15 11 11 11 13 12 12 11 11 11 10 9 8 8 8 7 6 4 4 4 4 3 3 3 3 3 3 3 4 3 4 3 3 3 3 4 4 4 4 4 4 4 3 3 4 3 4
12 12 13 14 12 11 12 12 11 11 12 11 10 11 11 10 11 11 11 12 12 13 13 11 8 9 21 22 21 19 22 23 21 21 19 19 18 17 13 14 13 13 12 12 11 11 10 9 8 7 5 4 4 4 4 4 3 4 3 4 4 4 4 4 4 4 4 4 4 4 4 4 4 6 6 5 5 5 4 4 4 2 3 3 2
11 12 12 12 11 10 11 11 11 11 11 11 10 11 11 11 11 11 11 12 12 12 13 13 10 8 10 12 18 19 21 19 19 18 19 18 19 15 13 13 13 13 12 12 11 10 9 7 4 4 4 4 3 3 3 3 3 4 4 4 5 5 4 5 5 5 5 5 4 4 4 4 4 4 6 6 5 5 5 4 4 4 4 3 4
13 13 13 13 11 11 11 12 13 13 11 11 11 11 11 12 12 12 12 13 13 13 13 14 12 12 13 14 12 12 13 13 13 12 12 13 14 13 13 13 13 12 12 10 10 9 7 5 4 5 4 4 4 4 4 4 4 5 6 6 5 5 7 7 7 6 6 6 5 5 5 4 4 4 5 6 6 5 5 5 4 4 3 3 3
11 16 20 21 16 13 12 13 12 11 11 11 10 10 11 12 12 12 12 12 13 13 13 13 12 13 15 12 6 8 8 9 11 15 13 12 12 12 11 11 11 12 10 8 7 7 6 6 5 5 5 5 5 5 5 6 5 6 7 7 6 6 6 5 6 6 6 6 5 4 5 5 5 5 6 6 6 5 6 5 4 4 4 3 2
12 12 14 18 11 11 11 11 12 11 11 11 11 10 11 12 13 13 12 12 13 13 12 13 14 15 15 10 9 9 12 14 14 15 12 12 12 12 12 12 12 11 9 7 7 7 6 6 6 6 5 6 5 6 5 6 6 7 7 7 7 6 5 6 8 8 8 6 6 5 5 5 5 6 6 6 6 5 6 5 4 3 3 3 2
12 12 12 13 13 12 11 12 11 11 11 11 11 11 12 12 12 12 12 13 14 14 15 15 16 16 15 15 15 15 13 13 12 12 12 13 12 12 12 12 10 9 7 7 7 7 7 8 7 7 6 6 6 6 6 7 7 7 7 7 7 6 6 6 6 9 7 6 6 6 6 6 6 6 6 5 5 6 4 5 5 4 4 3 2
13 13 13 12 12 10 10 11 12 13 11 11 11 12 12 12 12 12 13 13 14 14 15 15 15 16 15 18 15 18 14 12 11 10 11 11 11 11 9 8 6 7 8 8 8 9 8 8 7 8 7 6 6 6 6 6 7 7 7 8 7 7 6 6 7 7 7 7 6 6 6 6 6 6 6 5 6 6 6 6 6 5 4 2 2
14 13 13 13 12 12 11 12 12 12 11 11 11 11 13 12 12 12 13 14 14 14 14 15 15 14 14 15 12 14 12 12 11 12 10 9 8 8 9 9 8 7 6 6 6 7 8 9 8 8 9 9 8 7 9 8 6 6 7 8 7 8 9 8 7 6 7 7 7 6 6 6 7 6 6 6 5 6 6 5 4 4 4 3 2
14 14 13 13 13 12 12 11 11 11 11 13 14 13 13 12 12 12 13 13 14 14 14 15 14 14 13 7 4 8 11 12 10 8 7 6 6 6 6 7 8 8 8 7 7 7 8 9 9 7 6 6 5 5 6 6 9 9 7 7 7 8 8 7 7 7 7 7 7 7 7 6 6 6 6 6 5 6 6 5 5 4 4 3 3
17 16 15 15 15 14 14 13 12 12 13 12 12 12 12 11 11 12 12 12 13 14 14 14 13 13 11 9 7 9 10 9 5 3 4 4 5 6 9 12 12 12 10 7 7 9 9 8 7 8 7 5 5 5 5 5 7 9 10 12 11 8 8 8 7 7 7 8 8 7 6 6 6 6 6 6 5 6 6 5 5 5 3 2 2
18 18 17 15 15 15 15 15 14 13 12 12 13 13 13 12 11 11 11 12 13 13 13 12 12 12 11 11 8 6 8 7 6 6 5 7 8 11 11 10 10 10 10 7 7 10 10 8 8 7 7 7 6 6 6 5 6 7 8 9 10 9 7 6 6 7 7 7 8 7 7 7 7 7 7 6 6 5 6 6 4 4 5 3 3
18 18 18 16 15 15 15 15 14 14 14 14 14 14 14 14 13 12 11 13 13 12 12 12 12 12 11 10 9 9 8 8 8 8 7 8 11 12 11 11 12 11 10 8 7 7 8 8 6 7 7 7 7 7 6 6 6 6 9 10 8 7 7 6 6 6 7 7 8 8 8 8 7 7 8 6 5 6 5 6 4 4 2 3 2
16 17 18 18 17 16 15 15 16 17 15 15 14 14 14 14 14 13 12 12 13 12 12 12 12 11 8 9 8 8 7 6 5 5 9 13 13 13 11 10 8 6 9 7 5 6 7 7 7 6 7 7 7 7 6 8 9 8 7 6 6 7 7 8 7 7 6 6 7 7 8 8 7 6 5 6 5 5 5 4 3 2 3 2 3
16 16 16 17 17 17 16 16 16 15 16 16 16 16 14 14 14 13 13 13 13 12 12 12 11 8 8 8 6 6 5 6 11 11 9 8 7 7 7 8 8 7 6 7 5 5 7 7 7 7 7 7 7 6 6 9 8 7 7 6 10 16 13 9 6 6 6 6 5 5 5 6 6 5 4 4 5 4 5 4 3 2 2 1 2
16 17 16 17 17 17 17 16 16 16 15 15 15 15 15 14 14 13 14 13 13 13 12 10 10 8 6 6 5 8 12 14 11 9 8 9 8 8 8 8 9 8 7 7 5 4 5 6 7 8 8 9 9 10 10 7 5 6 5 6 14 15 12 11 10 9 7 4 5 5 5 5 4 4 4 5 4 5 3 3 3 4 2 2 2
15 16 16 16 16 17 16 16 15 16 14 15 15 15 15 15 15 15 14 14 13 12 11 7 5 5 6 6 9 11 13 16 16 16 16 15 8 8 9 9 8 8 8 8 6 5 5 5 5 5 8 12 11 10 7 6 6 6 10 15 14 12 11 8 7 8 8 6 5 5 6 5 4 4 3 5 4 4 4 3 3 3 3 3 3
Wind_Direction
244 250 250 249 241 255 263 268 265 249 252 233 237 246 246 240 240 239 248 242 226 227 230 235 235 235 240 239 241 247 246 249 233 230 230 238 236 237 245 221 229 242 239 250 230 221 226 236 245 243 225 221 232 226 222 223 213 219 212 200 217 210 196 212 229 256 274 223 232 242 241 193 249 212 233 237 233 226 223 227 225 219 219 223 229
235 246 238 239 241 247 249 250 248 251 254 257 251 254 252 243 239 231 229 247 214 227 230 233 232 232 233 238 239 243 245 244 238 222 232 238 243 232 239 232 234 244 236 246 243 226 224 231 246 248 225 226 235 233 224 217 209 214 217 205 219 218 203 200 226 233 257 278 258 240 235 181 239 192 210 222 236 217 221 228 223 218 223 224 227
251 244 251 251 252 248 249 253 244 241 242 253 253 255 254 254 238 233 241 247 226 222 230 228 229 227 232 236 237 240 239 240 232 222 231 233 240 239 231 232 233 239 237 240 242 236 227 229 241 242 231 228 236 238 229 226 215 216 224 208 222 224 208 207 208 232 240 257 256 256 219 197 208 232 213 226 231 205 218 230 227 223 226 226 225
255 249 249 254 255 262 257 258 256 253 246 247 248 252 252 253 241 238 247 250 247 238 225 230 227 226 235 238 235 239 238 235 230 220 227 228 233 238 236 231 234 237 238 241 241 234 232 236 240 236 232 233 241 238 232 230 225 223 227 224 216 228 216 202 214 229 231 247 263 246 234 199 239 246 229 221 228 212 207 232 232 235 231 227 226
251 252 247 259 264 255 260 258 259 259 254 255 251 252 252 252 248 244 249 255 251 249 244 222 229 228 236 238 237 236 235 232 231 227 226 226 229 234 234 233 235 236 236 238 239 237 237 234 242 233 226 232 243 239 235 229 229 223 228 230 222 228 221 202 218 217 234 240 258 259 245 237 239 240 213 225 235 224 228 227 228 229 232 232 233
239 248 248 250 261 258 258 259 251 252 255 259 256 253 251 247 250 251 235 255 259 246 247 238 224 236 235 240 239 241 237 231 230 230 229 228 228 230 233 235 237 237 237 236 236 235 239 240 240 232 226 226 238 240 238 236 230 226 229 233 228 222 224 227 214 216 221 239 242 268 269 255 264 244 227 211 226 243 244 243 249 237 229 243 233
241 236 246 242 257 256 254 251 248 250 250 252 258 259 253 248 244 249 240 242 253 256 248 246 239 234 243 239 242 240 240 234 232 233 233 233 232 231 233 235 238 238 237 236 234 235 236 239 240 231 229 228 233 236 238 236 227 231 227 232 227 213 220 227 217 216 221 234 245 242 260 264 234 260 247 194 215 221 247 262 256 222 225 226 247
249 242 240 247 245 252 246 245 247 248 252 257 258 259 261 257 248 247 241 243 244 247 249 246 251 233 241 237 242 241 244 242 234 233 235 233 233 236 232 237 239 239 240 236 233 234 234 236 236 234 230 230 228 232 225 234 224 232 231 228 223 213 219 221 216 215 222 228 234 243 235 251 266 241 262 194 236 260 227 230 255 255 244 225 225
255 250 249 245 246 243 246 245 243 248 250 255 258 256 255 255 256 250 241 243 241 245 247 248 256 255 246 241 246 239 241 242 232 229 236 238 230 240 239 236 236 241 243 241 235 234 236 236 236 236 233 234 230 229 226 221 220 230 231 217 222 218 220 216 216 214 222 225 238 237 246 248 248 260 244 223 228 237 219 190 239 250 260 263 245
252 258 252 249 250 245 242 245 243 241 245 246 248 251 253 254 253 252 247 241 244 243 245 247 244 250 254 247 239 238 240 239 233 230 224 231 235 238 242 241 236 235 241 247 246 234 236 235 238 235 236 237 237 236 236 233 229 225 229 211 217 218 219 219 219 220 223 224 228 229 234 236 243 240 244 240 239 244 235 209 229 240 254 261 266
251 250 255 253 253 252 246 245 240 242 240 244 248 248 248 246 248 250 249 244 241 239 236 247 243 241 243 248 247 237 237 237 234 229 233 232 236 241 242 247 239 235 235 240 248 246 240 235 238 238 238 241 241 239 238 237 236 235 233 229 219 212 217 221 227 221 223 229 233 229 230 240 240 240 241 250 244 235 234 230 236 239 237 248 261
245 248 250 258 257 252 250 249 246 246 242 244 242 244 245 244 245 244 247 246 240 230 235 238 242 241 240 242 246 246 245 235 230 231 233 234 236 238 240 245 245 238 235 237 242 244 245 242 238 231 230 230 233 238 238 237 237 237 237 235 233 227 222 220 226 228 224 232 236 232 233 233 244 241 247 239 245 245 239 237 235 234 242 243 245
246 252 252 250 255 253 251 251 250 250 242 240 240 241 241 244 243 242 243 240 235 230 235 234 239 236 233 241 245 244 249 229 225 232 231 234 240 241 242 240 243 243 238 238 240 241 240 240 246 237 233 232 233 233 233 237 235 237 239 239 237 235 234 232 230 231 228 232 235 238 224 235 242 242 236 238 229 244 233 236 230 233 235 242 242
239 251 256 254 252 251 253 252 254 252 246 242 238 240 238 242 240 237 243 239 230 237 234 234 237 233 230 234 244 249 248 245 225 226 231 239 242 243 243 241 242 243 240 239 240 240 235 235 243 249 236 230 230 230 231 232 231 233 236 236 237 239 238 237 237 236 234 236 235 238 228 214 234 236 234 222 228 236 233 240 227 236 236 239 240
250 247 253 257 252 249 249 249 254 256 250 243 240 241 237 244 242 238 230 234 232 233 232 234 235 231 230 229 238 248 250 240 220 224 227 234 238 242 242 241 244 245 243 238 239 239 236 233 237 245 245 238 229 224 227 226 226 229 229 231 230 231 231 232 232 234 236 236 239 242 240 231 236 237 236 227 229 235 233 239 234 238 245 250 257
256 251 251 253 249 245 242 249 252 255 253 246 241 243 238 235 241 235 229 239 237 239 246 233 241 236 228 224 231 248 250 236 222 224 224 230 238 239 236 240 244 248 249 241 238 237 232 231 236 242 244 245 242 233 230 222 222 229 232 236 235 231 231 227 226 227 229 231 235 237 240 239 241 240 234 231 237 241 247 252 252 250 256 257 256
257 251 252 253 247 242 238 243 251 254 250 249 246 243 239 238 240 225 232 236 235 232 235 232 234 236 236 226 228 242 252 245 232 230 228 229 232 234 235 240 245 248 250 247 239 237 233 225 228 238 243 247 243 235 234 231 231 230 234 239 241 238 240 229 230 233 234 235 237 239 241 240 240 241 238 237 239 237 247 251 246 236 250 259 260
257 254 255 254 246 240 237 235 244 249 248 246 247 247 241 238 237 214 222 233 235 235 229 237 235 231 233 234 226 237 247 247 234 228 226 220 219 225 229 235 248 247 254 251 242 238 235 229 225 233 240 246 243 241 237 232 235 234 235 240 246 248 248 234 236 232 233 238 240 241 242 244 244 244 243 242 242 238 234 243 243 226 249 248 261
258 252 253 254 248 238 236 233 236 242 243 246 244 248 243 235 231 214 225 230 240 241 229 232 240 234 232 236 234 233 246 249 241 224 222 218 221 223 223 231 246 251 248 254 247 241 240 233 230 231 236 241 243 243 241 234 236 234 234 237 246 249 248 232 237 237 232 230 239 242 247 247 248 246 246 245 242 236 232 240 238 229 246 249 252
256 255 254 254 249 240 232 231 234 235 240 244 242 243 247 243 232 223 228 224 238 237 237 235 241 245 234 233 238 233 241 246 236 224 218 221 219 216 211 221 237 248 246 244 258 253 238 234 225 229 236 242 245 245 243 236 233 237 231 235 242 250 244 229 228 228 239 235 241 229 237 234 238 238 242 242 240 235 234 234 231 226 239 249 245
260 255 254 253 248 242 236 227 234 235 233 239 237 242 240 239 236 228 231 227 233 243 239 241 241 249 241 236 240 242 233 241 240 221 221 221 221 215 215 221 232 236 244 248 243 251 251 232 224 219 231 238 242 244 244 242 239 236 232 235 235 250 247 241 241 231 239 244 248 246 245 239 238 239 242 240 238 234 233 234 230 224 229 241 245
261 258 254 253 252 247 241 237 230 237 236 231 237 238 240 236 235 233 231 226 232 242 242 242 244 250 250 240 237 246 239 230 244 231 219 221 221 217 216 224 216 220 238 247 248 247 244 236 228 214 225 235 239 241 243 245 242 240 238 244 250 249 248 244 246 240 241 245 249 254 253 249 247 243 243 242 239 234 231 232 229 227 228 231 238
263 261 261 261 259 256 252 241 239 234 236 228 230 238 236 234 237 228 233 230 234 244 244 245 246 252 257 248 240 242 243 241 232 236 223 220 223 221 220 221 213 211 223 239 239 246 241 232 230 220 224 231 237 241 244 244 246 239 245 247 247 248 248 242 237 240 242 244 244 249 248 248 251 248 244 247 243 235 235 231 230 227 230 233 235
268 267 265 265 268 267 261 253 245 243 240 235 233 239 240 232 236 228 229 228 233 241 245 241 242 251 256 260 250 240 238 235 237 231 227 219 225 223 222 222 215 218 217 234 241 241 245 238 229 222 227 231 239 244 246 244 239 241 242 244 245 247 243 236 231 236 241 241 243 246 248 246 249 253 249 248 248 237 236 234 233 229 231 235 236
271 267 266 266 269 270 268 258 251 248 243 228 237 236 242 232 235 231 221 234 231 237 243 230 236 246 252 255 258 252 236 228 238 231 224 223 223 224 223 222 224 221 225 234 234 235 241 246 242 230 230 236 242 246 247 247 247 247 246 244 241 230 229 227 230 230 237 239 242 245 246 243 241 248 251 250 249 244 241 251 245 263 299 299 12
271 265 266 266 266 267 270 267 253 248 244 229 232 234 234 233 230 233 214 230 233 234 240 232 235 241 248 252 252 254 242 224 235 233 222 224 226 227 225 225 227 226 228 235 232 238 243 247 249 250 252 251 249 241 236 237 238 240 242 241 234 228 221 222 226 228 233 234 234 239 242 237 241 231 226 242 260 247 233 241 230 241 207 223 233
270 269 265 266 266 264 264 267 266 256 242 241 234 232 229 232 233 235 222 226 234 235 234 233 234 237 244 249 250 250 246 235 234 237 224 217 222 222 226 233 232 233 235 237 239 240 247 248 248 248 243 241 239 235 234 233 235 237 236 230 227 223 222 220 224 228 233 235 240 241 244 244 203 119 256 248 251 244 214 241 241 239 187 220 230
265 268 264 264 266 264 264 266 266 266 256 237 241 238 229 223 229 231 223 221 227 235 231 229 228 229 237 244 248 250 244 238 233 229 227 213 219 212 217 218 216 212 220 224 218 226 234 253 260 265 255 255 247 248 242 232 229 229 229 223 223 222 228 233 235 237 239 242 252 250 250 232 248 227 194 212 232 239 89 234 228 240 185 184 207
265 265 265 265 265 262 261 264 262 262 262 252 241 238 236 228 231 241 234 222 222 230 233 235 229 225 230 236 236 247 248 238 238 213 218 206 204 207 209 215 209 211 213 203 209 225 233 243 250 251 242 239 244 241 239 231 235 230 229 224 221 218 221 220 230 236 239 241 244 243 245 218 215 124 174 220 229 196 99 275 283 243 189 183 231
275 268 262 260 263 264 263 261 260 260 260 261 262 259 239 233 237 238 250 227 226 237 235 240 236 216 228 236 219 229 242 244 191 189 205 206 205 203 205 199 200 200 202 217 213 216 220 213 228 238 241 234 237 237 239 234 234 228 224 218 216 215 214 217 223 227 222 227 230 226 232 211 251 213 224 240 227 93 64 96 330 81 179 215 235
280 277 268 262 259 259 262 264 262 258 257 256 255 261 274 247 230 236 243 247 236 230 235 240 248 240 229 249 237 226 242 255 250 222 205 208 203 202 205 203 206 213 217 216 219 217 206 206 227 235 238 235 236 235 231 227 229 229 223 209 211 210 212 212 217 215 213 217 212 202 191 192 224 196 229 208 154 104 81 56 84 58 150 288 210
277 280 278 272 268 261 258 261 264 263 262 253 250 257 260 274 274 228 228 240 240 238 239 238 238 239 237 238 247 249 235 236 240 236 228 222 216 214 216 216 220 221 225 217 225 224 225 228 233 234 231 233 236 232 227 225 222 220 221 221 221 206 207 214 192 180 190 188 197 197 177 151 120 114 122 115 111 111 107 88 91 105 91 90 101
271 276 278 276 272 268 263 261 261 260 262 260 258 248 254 258 265 282 242 217 233 234 233 237 239 240 238 238 237 240 244 239 229 228 228 228 228 228 229 229 229 227 221 218 224 231 227 227 231 230 226 232 235 228 225 218 215 213 212 219 219 192 143 103 103 118 139 168 135 115 115 125 129 119 115 119 130 128 134 126 122 121 132 122 122
266 268 274 274 274 272 267 260 260 260 255 256 256 253 249 246 255 259 277 284 254 244 240 236 235 237 239 238 236 236 240 243 240 234 229 226 225 227 227 234 231 225 215 218 220 230 229 229 229 226 226 227 229 224 224 220 211 204 188 162 120 105 124 126 117 119 114 107 108 116 117 118 126 124 116 106 102 115 119 124 127 127 110 126 124
268 268 266 265 265 269 270 267 264 262 261 256 252 250 250 252 248 254 254 260 267 267 261 236 225 224 232 238 236 233 233 236 237 235 233 231 226 223 224 232 225 221 219 221 221 226 225 227 226 224 218 223 222 213 208 175 159 163 162 136 126 131 121 116 108 99 111 108 100 97 101 104 101 111 125 124 121 109 112 112 97 107 122 124 135
271 271 274 270 265 263 265 267 263 260 262 260 258 253 254 251 247 249 253 255 259 266 273 260 243 220 227 233 234 227 227 230 230 229 229 225 222 210 215 223 218 215 217 218 219 224 222 226 225 218 186 172 151 168 171 161 150 134 134 141 136 127 123 120 119 109 93 99 109 115 102 89 98 105 96 91 102 114 121 123 120 114 120 123 123
278 277 276 274 270 267 268 267 264 261 259 261 259 258 255 253 249 250 248 249 251 253 256 267 265 250 230 232 229 225 225 224 225 225 223 219 212 206 219 219 220 220 218 219 217 217 219 207 166 155 151 165 142 137 130 135 127 118 108 110 119 121 119 116 120 121 120 114 105 101 104 110 104 113 123 118 111 108 108 103 95 95 79 96 93
278 277 277 280 280 275 274 270 269 266 263 259 257 256 257 255 254 251 252 250 248 248 252 254 251 254 251 248 195 209 220 221 221 227 225 215 211 213 215 219 219 218 221 218 206 199 189 142 144 147 145 137 146 145 144 139 137 131 125 120 114 114 114 109 104 107 113 119 122 123 118 107 98 99 104 112 119 108 96 99 103 94 88 97 110
281 276 274 274 274 275 273 275 275 271 265 262 258 256 254 258 256 252 250 251 254 252 251 255 253 252 247 244 195 201 172 205 203 211 209 211 210 209 213 216 219 223 220 200 169 169 155 151 139 132 140 148 147 154 148 148 142 138 134 128 123 122 117 123 122 124 121 119 111 107 100 96 85 86 98 106 107 114 115 116 122 133 139 139 143
289 291 288 287 286 274 270 268 270 270 267 267 265 257 257 255 257 257 257 256 255 256 257 252 253 250 249 238 215 178 196 213 217 215 212 210 208 206 203 208 212 209 192 174 170 158 150 138 142 142 142 147 149 147 150 145 144 139 137 134 132 123 123 123 126 122 118 118 115 113 108 108 106 101 92 104 122 126 127 123 118 110 111 114 102
295 291 290 291 284 283 278 275 271 267 270 264 265 263 260 260 260 259 257 255 256 257 253 253 252 254 252 242 216 196 212 221 222 212 212 210 205 202 203 204 193 181 170 165 160 155 151 147 145 145 143 143 148 149 148 147 139 137 128 125 120 114 116 113 119 120 122 119 120 115 114 112 113 110 111 114 108 104 102 106 97 98 101 105 121
300 301 300 298 295 288 281 279 276 273 268 268 266 264 265 263 262 260 259 258 258 257 259 259 258 259 266 257 233 212 218 236 227 221 218 211 206 202 189 176 164 161 161 167 159 153 148 144 143 144 143 144 144 146 142 142 142 135 134 129 122 120 118 125 127 126 124 121 118 120 121 119 114 110 116 112 109 112 107 106 113 108 103 100 94
304 301 300 296 296 290 286 281 281 282 277 272 268 265 263 263 264 263 262 262 262 263 263 263 265 267 266 264 242 218 223 234 232 227 223 207 196 175 173 166 156 148 142 139 138 141 143 142 139 140 138 134 143 148 151 147 141 132 129 125 123 123 121 126 123 124 124 123 123 120 116 112 112 112 112 113 114 111 115 113 105 98 100 100 99
308 307 303 300 295 290 285 280 279 274 274 273 271 271 270 267 265 262 264 264 265 265 263 264 267 271 272 278 238 219 231 238 240 229 213 188 184 173 151 135 127 128 135 132 135 135 135 132 115 107 101 101 104 101 112 124 128 132 133 126 123 127 131 135 141 147 142 135 132 126 122 118 118 117 112 113 111 108 106 106 108 115 111 115 118
319 313 308 304 302 297 294 288 282 280 278 279 277 274 268 266 263 263 262 261 262 260 262 264 268 269 271 259 225 226 232 234 223 191 172 160 154 155 154 142 135 131 126 126 129 129 125 120 115 120 120 117 118 116 109 105 110 114 120 126 132 139 148 151 153 148 139 132 132 126 122 116 112 108 114 117 120 122 122 127 127 121 113 134 133
316 310 305 300 299 295 295 294 292 289 285 283 280 283 279 274 266 262 258 259 260 261 262 262 261 260 259 252 228 219 219 199 184 169 158 163 160 133 84 73 64 79 83 90 113 118 127 125 127 128 129 129 128 117 110 107 106 107 106 107 108 120 131 132 133 126 125 125 124 124 124 120 124 129 131 132 131 131 130 128 125 133 149 156 165
318 311 308 300 297 292 291 289 291 291 290 286 281 280 278 277 277 273 267 259 259 263 264 259 257 254 247 233 218 215 199 194 191 182 171 137 99 95 97 92 92 82 86 82 88 97 105 107 111 123 122 122 116 109 108 102 99 96 87 90 108 117 121 125 121 117 120 122 126 125 130 131 133 134 135 134 134 135 133 137 137 147 150 157 165
310 310 307 302 298 295 292 292 288 288 284 283 280 279 277 277 275 272 273 270 264 258 257 255 253 248 232 220 208 201 189 180 141 129 123 101 106 110 105 101 94 95 90 91 78 86 103 104 113 116 114 114 111 108 105 106 90 101 108 112 112 121 125 122 119 117 121 123 127 128 130 130 133 136 141 140 140 138 125 131 128 131 153 157 166
306 304 305 305 299 297 294 293 290 288 286 286 283 281 278 275 273 273 272 269 267 262 258 257 254 236 216 213 184 161 139 122 105 104 106 114 107 100 97 98 96 89 88 86 88 86 97 102 105 109 108 106 104 106 108 100 110 120 123 134 133 130 128 125 121 126 124 114 110 107 107 112 124 132 136 132 136 133 131 137 144 152 151 160 165
303 304 303 304 303 300 297 293 290 286 285 281 281 280 279 276 277 272 271 270 269 266 261 252 244 230 205 171 143 120 112 118 128 128 126 126 122 119 112 111 109 109 107 108 102 97 95 101 114 115 115 112 110 102 83 111 121 128 142 147 127 125 127 124 121 120 111 106 111 112 111 115 118 131 139 141 136 135 140 158 160 168 169 177 200
300 302 302 301 302 300 298 296 293 292 290 287 286 283 282 280 278 277 275 272 268 267 260 242 196 129 129 141 138 142 144 130 124 121 123 122 128 122 119 113 116 116 113 111 108 104 106 104 109 118 119 118 109 111 118 121 124 133 130 123 118 118 111 103 107 113 113 109 107 109 120 132 137 135 137 133 125 134 163 174 174 173 186 191 204